User: anonymous   Login
Location: Kikino
(54.4440°N, 112.0940°W)
Time: 03:35:21
(UTC+00:00)
Language:

Explorer 7 - Orbit

View from above orbital plane
View from above orbital plane
View from above satellite
View from above satellite

Ground track
Ground track

The orbit data is extracted from the following two-line orbital elements,

1    22U 59009A   24141.53030256  .00013229  00000-0  77412-3 0  9994
2    22  50.2774 185.1697 0114602   1.2429 358.8787 15.06696430440194
Epoch (UTC): 20 May 2024 12:43:38
Eccentricity: 0.0114602
inclination: 50.2774°
perigee height: 467 km
apogee height: 625 km
right ascension of ascending node: 185.1697°
argument of perigee: 1.2429°
revolutions per day: 15.06696430
mean anomaly at epoch: 358.8787°
orbit number at epoch: 44019

The dashed part of the orbit path shows where the satellite is in the earth's shadow,  

DLR